Location: Pasadena
(34.1478°N, 118.1436°W)
Time: 02:50:01
(UTC-08:00)

ISS - Pass Details

Date: 23 January 2019
Orbit: 403 x 411 km, 51.6° (Epoch: 22 February)

Event Time Altitude Azimuth Distance (km) Brightness Sun altitude
Rises 18:47:52 0° 262° (W) 2,323 1.7 -19.4°
Reaches altitude 10° 18:50:25 10° 283° (WNW) 1,468 0.0 -19.9°
Maximum altitude 18:52:45 18° 328° (NNW) 1,095 -1.4 -20.4°
Enters shadow 18:53:35 16° 348° (NNW) 1,153 -1.5 -20.6°
